www.pogodaiklimat.ru

АРХИВ ПОГОДЫ в Майами

Время (UTC), дата Ветер
(напр.,м/с)
 
Видим.   Явления Облачность Т
(С)
Тd
(С)
f
(%)
Тe
(С)
Тes
(С)
Комфортность

P
(гПа)

Po
(гПа)
Тmin
(С)
Tmax
(С)
R
(мм)
SD
(см)
06:53 24.05 ЮВ  16 км    8/2 510 м
[средняя верхняя] 
+25.0  +23.9  94  +34  +34  очень
душно 
1017.0  1016.5         
07:53 24.05 В  16 км    10/2 510 м
[средняя верхняя] 
+24.4  +23.3  94  +33  +33  очень
душно 
1017.1  1016.8         
08:53 24.05 В  16 км    10/2 510 м
[средняя верхняя] 
+25.0  +24.0  94  +34  +34  очень
душно 
1017.3  1016.8         
09:53 24.05 В  16 км    10/2 510 м
[средняя верхняя] 
+25.0  +24.0  94  +34  +34  очень
душно 
1017.5  1017.1         
10:53 24.05 ЮВ  16 км    10/5 510 м
[средняя верхняя] 
+26.1  +23.9  88  +36  +36  очень
душно 
1017.9  1017.5  +24.4  +26.1     
11:53 24.05 ЮВ  16 км    10/8 570 м
[верхняя] 
+27.0  +23.0  79  +36  +36  очень
душно 
1018.3  1017.8         
12:02 24.05 ЮВ  16 км    10/8 600 м
[верхняя] 
+27.0  +23.0  79  +36  +37  очень
душно 
  1017.8         
12:53 24.05 В  16 км  слабый дождь  10/8 600 м
[верхняя] 
+26.7  +23.9  85  +37  +37  очень
душно 
  1018.1         
13:53 24.05 ЮВ  16 км    10/5 660 м
[средняя верхняя] 
+27.8  +22.8  74  +37  +38  очень
душно 
1013.5  1018.1         
14:53 24.05 В  16 км    10/5 660 м
[средняя верхняя] 
+28.0  +23.0  74  +37  +39  очень
душно 
1018.5  1018.1         
15:53 24.05 ЮВ  16 км    10/5 720 м
[средняя верхняя] 
+29.0  +23.0  70  +39  +40  очень
душно 
1018.0  1017.5         
16:53 24.05 В  16 км    10/5 780 м
[средняя верхняя] 
+29.4  +22.8  68  +39  +41  очень
душно 
1017.7  1017.1  +26.1  +30.0     
17:53 24.05 В  16 км    8/5 780 м
[средняя верхняя] 
+29.0  +23.0  70  +39  +41  очень
душно 
1017.3  1016.8         
18:53 24.05 В  16 км    10/5 810 м
[средняя верхняя] 
+28.0  +23.0  74  +37  +39  очень
душно 
1016.9  1016.5         
19:53 24.05 В  16 км    10/5 810 м
[средняя верхняя] 
+27.0  +23.0  79  +36  +38  очень
душно 
1016.3  1015.8         
20:53 24.05 В  16 км    10/8 810 м
[средняя] 
+27.0  +23.0  79  +36  +36  очень
душно 
1016.5  1016.1         
21:53 24.05 В  16 км    10/8 810 м
[средняя] 
+27.0  +23.0  79  +36  +36  очень
душно 
1016.8  1016.5         
22:53 24.05 В  16 км    10/5 810 м
[средняя] 
+26.7  +23.9  85  +37  +37  очень
душно 
1016.9  1016.5  +26.7  +29.4     
23:53 24.05 В  16 км    10/5 750 м
[средняя] 
+26.0  +23.0  84  +35  +35  очень
душно 
1016.8  1016.5         
00:53 25.05 В  16 км    10/2 750 м
[средняя верхняя] 
+26.0  +24.0  89  +36  +36  очень
душно 
1016.8  1016.5         
01:53 25.05 В  16 км    10/5 540 м
[средняя] 
+26.0  +23.0  84  +35  +35  очень
душно 
1017.2  1016.8         
02:30 25.05 В  16 км    10/8 540 м
[средняя] 
+26.1  +23.3  85  +35  +35  очень
душно 
  1016.8         
02:47 25.05 В  8 км  слабый дождь, дымка  10/8 630 м
[средняя] 
+25.0  +24.0  94  +34  +34  очень
душно 
           
02:53 25.05 В  8 км  слабый дождь, дымка  10/8 600 м
[средняя] 
+24.4  +23.3  94  +33  +33  очень
душно 
1017.5  1017.1         
03:53 25.05 В  16 км    10/8 600 м
[верхняя] 
+25.0  +23.9  94  +34  +34  очень
душно 
1003.5  1016.8         
04:53 25.05 В  16 км    10/2 540 м
[средняя] 
+26.0  +24.0  89  +36  +36  очень
душно 
1016.4  1016.1  +24.4  +26.7     
05:53 25.05 ЮВ  16 км    10/2 510 м
[средняя] 
+26.0  +24.0  89  +36  +36  очень
душно 
1015.9  1015.4         
06:53 25.05 ЮВ  16 км    10/2 510 м
[средняя] 
+26.0  +24.0  89  +36  +36  очень
душно 
1015.4  1015.1         
07:53 25.05 ЮВ  16 км    10/5 450 м
[средняя] 
+25.0  +22.8  88  +33  +33  очень
душно 
1015.4  1015.1         
08:53 25.05 В  16 км    10/2 540 м
[средняя] 
+25.6  +23.9  90  +35  +35  очень
душно 
1015.2  1014.8         
09:53 25.05 ЮВ  16 км    10/2 540 м
[средняя] 
+25.0  +23.9  94  +34  +34  очень
душно 
1015.4  1015.1         
10:53 25.05 ЮВ  16 км    10/2 600 м
[средняя] 
+26.0  +24.0  89  +36  +36  очень
душно 
1015.6  1015.1  +24.4  +26.1     
11:53 25.05 ЮВ  16 км    10/5 540 м
[средняя] 
+27.0  +24.0  84  +37  +38  очень
душно 
1016.2  1015.8         
12:01 25.05 В  16 км    10/8 540 м
[средняя] 
+26.7  +23.9  85  +37  +37  очень
душно 
  1015.8         
12:53 25.05 ЮВ  16 км    10/8 570 м
[средняя верхняя] 
+27.0  +24.0  84  +37  +38  очень
душно 
1016.3  1015.8         
12:58 25.05 В  16 км    10/5 570 м
[средняя верхняя] 
+27.0  +24.0  84  +37  +38  очень
душно 
  1015.8         
13:08 25.05 В  16 км    10/8 600 м
[средняя верхняя] 
+27.2  +23.9  82  +37  +38  очень
душно 
  1015.8         
13:53 25.05 В  16 км    10/5 570 м
[средняя верхняя] 
+27.2  +23.3  79  +37  +37  очень
душно 
1016.4  1016.1         
14:22 25.05 В  16 км    10/8 600 м
[средняя верхняя] 
+27.2  +23.9  82  +37  +38  очень
душно 
  1016.1         
14:53 25.05 В  7
{12} 
10 км  слабый дождь, дымка  10/8 480 м
[средняя] 
+25.6  +23.3  87  +34  +35  очень
душно 
1016.3  1015.8         
15:29 25.05 ЮВ  4
{8} 
11 км  слабый дождь  10/8 360 м
[средняя] 
+26.0  +24.0  89  +36  +37  очень
душно 
  1015.4         
15:51 25.05 Ю  16 км  слабый дождь  10/8 360 м
[средняя] 
+25.0  +24.0  94  +34  +35  очень
душно 
  1015.4         
15:53 25.05 нст  16 км  слабый дождь  10/10 360 м  +25.0  +24.4  96  +35  +35  очень
душно 
1016.0  1015.4         
15:57 25.05 ЮВ  6
{9} 
2 км  сильный дождь, дымка  10/10 360 м  +25.0  +24.4  96  +35  +35  очень
душно 
  1015.8         
16:09 25.05 Ю  6
{11} 
4 км  сильный дождь  10/10 360 м  +22.2  +22.2  100  +30  +30  очень
душно 
  1016.1         
16:19 25.05 ЮВ  2 км  сильный дождь  10/10 360 м  +22.2  +22.2  100  +30  +30  очень
душно 
           
16:37 25.05 Ю  14 км  слабый дождь  10/10 360 м  +23.9  +23.9  100  +33  +33  очень
душно 
  1015.4         
16:53 25.05 нст  16 км  слабый дождь  10/10 360 м  +24.4  +24.4  100  +34  +34  очень
душно 
1015.9  1015.4  +22.2  +27.2  13.5   

 

Местоположение метеостанции Miami International Airport: широта 25.7906 долгота -80.3164 высота над уровнем моря 3 м.

В архиве по умолчанию представлена погода в Майами за последние 1-2 суток. Обновление информации о фактической погоде в базе происходит ежечасно! Архивные данные за месяц целиком и за предыдущие месяцы Вы можете получить, выбрав интересующий диапазон дат из раскрывающегося списка и нажав кнопку "Ввод!".

Внимание! Архив погоды МЕТАР в базе сайта в настоящее время начинается c 1 января 2013 г. Нет смысла пытаться выбрать более раннюю дату.

Внимание! Время в таблицах - всемирное. Для получения местного времени необходимо прибавить поправку, которая в Майами равна -5 ч.

Ветер - указаны скорость ветра в м/с и направление, откуда дует ветер: С - северный, СВ - северо-восточный, В - восточный, ЮВ - юго-восточный, Ю - южный, ЮЗ - юго-западный, З - западный, СЗ - северо-западный.
Видимость - горизонтальная дальность видимости в метрах или километрах. При видимости от 1 до 10 км при отсутствии осадков обычно наблюдается дымка, при ухудшении видимости до 1 км и менее - туман. В сухую погоду видимость может ухудшаться дымом, пылью или мглою.
Атмосферные явления - указаны явления, наблюдавшиеся в указанный момент времени.
Облачность - указаны через наклонную черту верхняя и нижняя облачность в баллах и высота нижней границы облаков в метрах. Внимание: облачность, как и прочие метеорологические величины в США измеряются автоматическими метеостанциями. Указанные значения в баллах носят условный характер и показывают процент времени, в течение которого, в среднем, лазерный луч высотомера отражался от облаков обратно.
T - Температура воздуха - температура, измеренная на высоте 2 м над землей.
Td - Температура точки росы - температура, при понижении до которой содержащийся в воздухе водяной пар достигнет насыщения.
f - Относительная влажность воздуха - влажноcть воздуха, измеренная на высоте 2 м над землей.
Te - Эффективная температура - температура, которую ощущает одетый по сезону человек в тени. Характеристика душности погоды. При расчете учитывается влияние влажности воздуха и скорости ветра на теплоощущения человека.
Tes - Эффективная температура на солнце - температура, которую ощущает человек, с поправкой на солнечный нагрев. Характеристика знойности погоды. Зависит от высоты солнца над горизонтом, облачности и скорости ветра. Ночью, в пасмурную погоду, а также при ветре 12 м/с и более поправка равна нулю.
P - Атмосферное давление - приведенное к уровню моря атмосферное давление.
Po - Атмосферное давление - измеренное на уровне метеостанции атмосферное давление.
Tmin - Минимальная температура - минимум температуры воздуха на высоте 2 м над землей.
Tmax - Максимальная температура - максимум температуры воздуха на высоте 2 м над землей.
R - Количество осадков - Количество выпавших осадков за 3 или 6 часов, мм.
SD - Снежный покров - Высота снежного покрова, см.